TimeCDT,TemperatureF,Dew PointF,Humidity,Sea Level PressureIn,VisibilityMPH,Wind Direction,Wind SpeedMPH,Gust SpeedMPH,PrecipitationIn,Events,Conditions,WindDirDegrees,DateUTC
12:54 AM,52.0,45.0,77,29.94,10.0,North,5.8,-,N/A,,Overcast,350,2013-06-30 05:54:00
1:54 AM,51.1,45.0,80,29.94,10.0,NNW,5.8,-,N/A,,Overcast,340,2013-06-30 06:54:00
2:54 AM,52.0,46.9,83,29.94,10.0,WNW,4.6,-,N/A,,Mostly Cloudy,290,2013-06-30 07:54:00
3:54 AM,51.1,46.0,83,29.95,10.0,WNW,3.5,-,N/A,,Clear,290,2013-06-30 08:54:00
4:54 AM,50.0,46.0,86,29.97,10.0,WNW,3.5,-,N/A,,Clear,290,2013-06-30 09:54:00
5:54 AM,50.0,46.9,89,29.99,10.0,NW,3.5,-,N/A,,Clear,310,2013-06-30 10:54:00
6:54 AM,54.0,46.0,75,30.00,10.0,NNW,4.6,-,N/A,,Clear,330,2013-06-30 11:54:00
7:54 AM,60.1,46.9,62,30.02,10.0,NNW,4.6,-,N/A,,Clear,330,2013-06-30 12:54:00
8:54 AM,66.0,46.9,50,30.02,10.0,NNW,5.8,-,N/A,,Clear,340,2013-06-30 13:54:00
9:54 AM,71.1,42.1,35,30.03,10.0,NNE,9.2,-,N/A,,Clear,20,2013-06-30 14:54:00
10:54 AM,73.9,37.9,27,30.04,10.0,NNE,8.1,-,N/A,,Clear,30,2013-06-30 15:54:00
11:54 AM,75.9,39.0,26,30.04,10.0,Variable,5.8,-,N/A,,Clear,0,2013-06-30 16:54:00
12:54 PM,78.1,43.0,29,30.03,10.0,NE,9.2,-,N/A,,Clear,40,2013-06-30 17:54:00
1:54 PM,78.1,43.0,29,30.04,10.0,NNE,11.5,-,N/A,,Clear,30,2013-06-30 18:54:00
2:54 PM,79.0,44.1,29,30.03,10.0,North,8.1,-,N/A,,Clear,10,2013-06-30 19:54:00
3:54 PM,79.0,43.0,28,30.03,10.0,North,10.4,-,N/A,,Clear,350,2013-06-30 20:54:00
4:54 PM,80.1,43.0,27,30.03,10.0,NE,8.1,16.1,N/A,,Clear,40,2013-06-30 21:54:00
5:54 PM,79.0,45.0,30,30.04,10.0,NNE,8.1,-,N/A,,Clear,30,2013-06-30 22:54:00
6:54 PM,78.1,43.0,29,30.04,10.0,NNE,6.9,-,N/A,,Clear,20,2013-06-30 23:54:00
7:54 PM,73.9,46.0,37,30.05,10.0,NNE,3.5,-,N/A,,Clear,30,2013-07-01 00:54:00
8:54 PM,64.9,48.9,56,30.06,10.0,Calm,Calm,-,N/A,,Clear,0,2013-07-01 01:54:00
9:54 PM,60.1,50.0,69,30.08,10.0,Calm,Calm,-,N/A,,Clear,0,2013-07-01 02:54:00
10:54 PM,57.9,53.1,84,30.09,10.0,NW,3.5,-,N/A,,Clear,310,2013-07-01 03:54:00
11:54 PM,54.0,51.1,90,30.11,10.0,Calm,Calm,-,N/A,,Clear,0,2013-07-01 04:54:00